Charlotte, MI

2:12 PM EDT on August 17, 2017 (GMT -0400)
Charlotte

Weather History for KFPK - January, 2013

Change the Weather History Date:

Saturday, January 19, 2013

  Actual Average (KLAN) Record (KLAN)
Temperature  
Mean Temperature 42 °F -  
Max Temperature 46 °F 29 °F 53 °F (1949)
Min Temperature 37 °F 11 °F -20 °F (1892)
Degree Days  
Heating Degree Days 24    
Moisture  
Dew Point 30 °F    
Average Humidity 65    
Maximum Humidity 72    
Minimum Humidity 55    
Precipitation  
Precipitation 0.00 in - - ()
Sea Level Pressure  
Sea Level Pressure 29.77 in    
Wind  
Wind Speed 14 mph (SW)    
Max Wind Speed 25 mph    
Max Gust Speed 39 mph    
Visibility 10 miles    
Events      
Averages and records for this station are not official NWS values.
T = Trace of Precipitation, MM = Missing Value Source: NWS Daily Summary

Daily Weather History Graph

Daily Weather History Graph

Search for Another Location

Airport or City:

Trip Planner

Search our weather history database for the weather conditions in past years. The results will help you decide how hot, cold, wet, or windy it might be!

Date:

Astronomy

Jan. 19, 2013 Rise Set
Actual Time 8:04 AM EST 5:36 PM EST
Civil Twilight 7:33 AM EST 6:07 PM EST
Nautical Twilight 6:58 AM EST 6:41 PM EST
Astronomical Twilight 6:25 AM EST 7:15 PM EST
Moon 12:03 PM EST (1/19) 1:35 AM EST (1/19)
Length of Visible Light 10h 34m
Length of Day
9h 32m
First Quarter, 57% of the Moon is Illuminated
Jan 19
First Quarter
Jan 26
Full
Feb 3
Last Quarter
Feb 10
New
Feb 17
First Quarter

Hourly Weather History & Observations

Time (EST) Temp. Windchill Dew Point Humidity Pressure Visibility Wind Dir Wind Speed Gust Speed Precip Events Conditions
12:15 AM 37.0 °F 28.5 °F 24.8 °F 61% 29.88 in 10.0 mi SSW 13.8 mph 21.9 mph N/A   Clear
12:35 AM 37.2 °F 27.6 °F 25.0 °F 61% 29.88 in 10.0 mi SSW 17.3 mph 23.0 mph N/A   Clear
12:55 AM 37.0 °F 28.5 °F 25.3 °F 63% 29.87 in 10.0 mi SSW 13.8 mph 20.7 mph N/A   Clear
1:15 AM 37.4 °F 28.5 °F 25.7 °F 63% 29.87 in 10.0 mi SSW 15.0 mph 23.0 mph N/A   Clear
1:35 AM 37.4 °F 29.3 °F 25.7 °F 63% 29.87 in 10.0 mi SSW 12.7 mph 21.9 mph N/A   Clear
1:55 AM 37.4 °F 28.9 °F 25.9 °F 63% 29.87 in 10.0 mi SSW 13.8 mph 20.7 mph N/A   Clear
2:15 AM 37.4 °F 29.8 °F 26.1 °F 64% 29.87 in 10.0 mi SSW 11.5 mph 17.3 mph N/A   Clear
2:35 AM 37.9 °F 29.6 °F 26.4 °F 63% 29.87 in 10.0 mi SSW 13.8 mph 23.0 mph N/A   Clear
2:55 AM 37.6 °F 29.6 °F 26.6 °F 65% 29.88 in 10.0 mi SSW 12.7 mph 19.6 mph N/A   Clear
3:15 AM 37.4 °F 29.8 °F 26.6 °F 65% 29.88 in 10.0 mi SSW 11.5 mph 16.1 mph N/A   Clear
3:35 AM 37.4 °F 29.8 °F 27.0 °F 66% 29.88 in 10.0 mi SSW 11.5 mph 17.3 mph N/A   Clear
3:55 AM 37.4 °F 29.8 °F 27.1 °F 66% 29.88 in 10.0 mi SSW 11.5 mph - N/A   Clear
4:15 AM 37.6 °F 29.1 °F 27.5 °F 67% 29.87 in 10.0 mi SSW 13.8 mph 17.3 mph N/A   Clear
4:35 AM 37.9 °F 30.0 °F 27.9 °F 67% 29.87 in 10.0 mi SW 12.7 mph 18.4 mph N/A   Clear
4:55 AM 38.5 °F 30.7 °F 28.0 °F 66% 29.87 in 10.0 mi SW 12.7 mph 19.6 mph N/A   Clear
5:15 AM 38.7 °F 30.1 °F 28.2 °F 66% 29.87 in 10.0 mi SW 15.0 mph 23.0 mph N/A   Clear
5:35 AM 38.3 °F 30.1 °F 28.4 °F 68% 29.86 in 10.0 mi SW 13.8 mph 20.7 mph N/A   Clear
5:55 AM 38.3 °F 30.5 °F 28.4 °F 68% 29.86 in 10.0 mi SW 12.7 mph 19.6 mph N/A   Clear
6:15 AM 38.3 °F 30.1 °F 28.4 °F 68% 29.87 in 10.0 mi SW 13.8 mph 21.9 mph N/A   Clear
6:35 AM 37.9 °F 29.6 °F 28.6 °F 69% 29.87 in 10.0 mi SW 13.8 mph 18.4 mph N/A   Clear
6:55 AM 38.3 °F 29.7 °F 28.9 °F 69% 29.87 in 10.0 mi SW 15.0 mph 21.9 mph N/A   Clear
7:15 AM 38.3 °F 30.5 °F 29.1 °F 70% 29.87 in 10.0 mi SW 12.7 mph 19.6 mph N/A   Clear
7:35 AM 38.5 °F 29.9 °F 29.1 °F 69% 29.87 in 10.0 mi SSW 15.0 mph 21.9 mph N/A   Scattered Clouds
7:55 AM 38.5 °F 29.6 °F 29.1 °F 69% 29.87 in 10.0 mi SW 16.1 mph 24.2 mph N/A   Scattered Clouds
8:15 AM 38.7 °F 30.9 °F 29.1 °F 69% 29.87 in 10.0 mi SW 12.7 mph 20.7 mph N/A   Clear
8:35 AM 38.5 °F 30.3 °F 29.1 °F 69% 29.87 in 10.0 mi SSW 13.8 mph 19.6 mph N/A   Scattered Clouds
8:55 AM 38.5 °F 30.7 °F 29.3 °F 70% 29.88 in 10.0 mi SSW 12.7 mph 20.7 mph N/A   Mostly Cloudy
9:15 AM 39.0 °F 30.6 °F 29.5 °F 69% 29.88 in 10.0 mi SSW 15.0 mph 18.4 mph N/A   Overcast
9:35 AM 39.6 °F 32.1 °F 29.7 °F 68% 29.88 in 10.0 mi SSW 12.7 mph 20.7 mph N/A   Mostly Cloudy
9:55 AM 40.3 °F 32.6 °F 30.0 °F 67% 29.88 in 10.0 mi SW 13.8 mph 20.7 mph N/A   Scattered Clouds
10:15 AM 41.2 °F 34.1 °F 29.8 °F 64% 29.88 in 10.0 mi SSW 12.7 mph 21.9 mph N/A   Clear
10:35 AM 41.9 °F 35.0 °F 30.0 °F 63% 29.88 in 10.0 mi SW 12.7 mph 24.2 mph N/A   Clear
10:55 AM 41.5 °F 35.0 °F 29.8 °F 63% 29.87 in 10.0 mi SW 11.5 mph 20.7 mph N/A   Clear
11:15 AM 41.5 °F 34.2 °F 30.0 °F 64% 29.86 in 10.0 mi SSW 13.8 mph 23.0 mph N/A   Clear
11:35 AM 41.5 °F 35.4 °F 30.2 °F 64% 29.85 in 10.0 mi SSW 10.4 mph 19.6 mph N/A   Clear
11:55 AM 43.2 °F 36.6 °F 30.9 °F 62% 29.83 in 10.0 mi SSW 12.7 mph 20.7 mph N/A   Clear
12:15 PM 44.6 °F 38.1 °F 30.7 °F 58% 29.81 in 10.0 mi SSW 13.8 mph 25.3 mph N/A   Clear
12:35 PM 44.6 °F 37.4 °F 30.9 °F 59% 29.79 in 10.0 mi SW 16.1 mph 24.2 mph N/A   Clear
12:55 PM 44.4 °F 37.5 °F 30.9 °F 59% 29.78 in 10.0 mi SSW 15.0 mph 21.9 mph N/A   Clear
1:15 PM 44.1 °F 37.1 °F 30.9 °F 60% 29.77 in 10.0 mi SSW 15.0 mph 25.3 mph N/A   Clear
1:35 PM 45.9 °F 38.8 °F 31.5 °F 57% 29.76 in 10.0 mi SSW 17.3 mph 33.4 mph N/A   Clear
1:55 PM 46.8 °F - 31.5 °F 55% 29.75 in 10.0 mi SSW 15.0 mph 25.3 mph N/A   Clear
2:15 PM 45.5 °F 38.9 °F 31.6 °F 58% 29.73 in 10.0 mi SSW 15.0 mph 24.2 mph N/A   Clear
2:35 PM 45.5 °F 38.9 °F 31.8 °F 59% 29.72 in 10.0 mi SSW 15.0 mph 21.9 mph N/A   Clear
2:55 PM 45.5 °F 39.9 °F 32.0 °F 59% 29.71 in 10.0 mi SSW 11.5 mph 23.0 mph N/A   Scattered Clouds
3:15 PM 45.5 °F 38.3 °F 32.0 °F 59% 29.71 in 10.0 mi SSW 17.3 mph 20.7 mph N/A   Mostly Cloudy
3:35 PM 45.0 °F 38.2 °F 32.0 °F 60% 29.71 in 10.0 mi SW 15.0 mph 20.7 mph N/A   Mostly Cloudy
3:55 PM 44.8 °F 38.3 °F 32.0 °F 61% 29.71 in 10.0 mi SSW 13.8 mph 20.7 mph N/A   Overcast
4:15 PM 45.0 °F 38.2 °F 32.0 °F 60% 29.70 in 10.0 mi SSW 15.0 mph 23.0 mph N/A   Overcast
4:35 PM 45.0 °F 36.9 °F 32.0 °F 60% 29.68 in 10.0 mi SSW 20.7 mph 28.8 mph N/A   Overcast
4:55 PM 44.8 °F 36.6 °F 32.4 °F 62% 29.66 in 10.0 mi South 20.7 mph 27.6 mph N/A   Overcast
5:15 PM 44.4 °F 36.6 °F 32.5 °F 63% 29.64 in 10.0 mi South 18.4 mph 26.5 mph N/A   Mostly Cloudy
5:35 PM 44.1 °F 36.8 °F 32.9 °F 65% 29.64 in 10.0 mi South 16.1 mph 26.5 mph N/A   Scattered Clouds
5:55 PM 44.2 °F 36.7 °F 32.9 °F 64% 29.69 in 10.0 mi WSW 17.3 mph 20.7 mph N/A   Mostly Cloudy
6:15 PM 44.6 °F 39.2 °F 32.9 °F 64% 29.67 in 10.0 mi SSW 10.4 mph 21.9 mph N/A   Overcast
6:35 PM 43.7 °F 36.3 °F 33.1 °F 66% 29.66 in 10.0 mi SSW 16.1 mph 23.0 mph N/A   Scattered Clouds
6:55 PM 44.2 °F 37.0 °F 33.4 °F 66% 29.64 in 10.0 mi SSW 16.1 mph 21.9 mph N/A   Mostly Cloudy
7:15 PM 43.9 °F 37.2 °F 33.6 °F 67% 29.64 in 10.0 mi SSW 13.8 mph 24.2 mph N/A   Mostly Cloudy
7:35 PM 43.2 °F 36.2 °F 33.8 °F 70% 29.65 in 10.0 mi SSW 13.8 mph 19.6 mph N/A   Scattered Clouds
7:55 PM 43.2 °F 36.2 °F 33.8 °F 70% 29.64 in 10.0 mi SW 13.8 mph 20.7 mph N/A   Scattered Clouds
8:15 PM 42.8 °F 36.6 °F 33.8 °F 70% 29.63 in 10.0 mi SW 11.5 mph - N/A   Scattered Clouds
8:35 PM 42.4 °F 36.5 °F 33.8 °F 71% 29.61 in 10.0 mi SSW 10.4 mph 17.3 mph N/A   Scattered Clouds
8:55 PM 42.6 °F 35.9 °F 34.2 °F 72% 29.61 in 10.0 mi SW 12.7 mph 18.4 mph N/A   Scattered Clouds
9:15 PM 43.7 °F 36.9 °F 34.7 °F 71% 29.61 in 10.0 mi SW 13.8 mph 23.0 mph N/A   Mostly Cloudy
9:35 PM 43.9 °F 37.9 °F 34.7 °F 70% 29.60 in 10.0 mi SW 11.5 mph 25.3 mph N/A   Mostly Cloudy
9:55 PM 44.6 °F 37.8 °F 34.7 °F 68% 29.59 in 10.0 mi SW 15.0 mph 21.9 mph N/A   Overcast
10:15 PM 44.1 °F 37.4 °F 34.5 °F 69% 29.59 in 10.0 mi SW 13.8 mph 23.0 mph N/A   Overcast
10:35 PM 44.2 °F 38.0 °F 34.3 °F 68% 29.58 in 10.0 mi SW 12.7 mph 23.0 mph N/A   Overcast
10:55 PM 44.6 °F 35.5 °F 33.8 °F 66% 29.58 in 10.0 mi WSW 25.3 mph 32.2 mph N/A   Overcast
11:15 PM 44.6 °F 35.5 °F 32.4 °F 62% 29.58 in 10.0 mi West 25.3 mph 33.4 mph N/A   Overcast
11:35 PM 43.3 °F 34.2 °F 29.1 °F 57% 29.58 in 10.0 mi WSW 23.0 mph 39.1 mph N/A   Mostly Cloudy
11:55 PM 42.4 °F 33.5 °F 27.7 °F 56% 29.57 in 10.0 mi WSW 20.7 mph 38.0 mph N/A   Mostly Cloudy